Year,Month,Day,Hour,Minute,Value (Times are PST for windspeed in km/hr)
2015,08,29,00,00,5.10
2015,08,29,00,01,5.30
2015,08,29,00,02,5.20
2015,08,29,00,03,6.70
2015,08,29,00,04,7.40
2015,08,29,00,05,5.10
2015,08,29,00,06,5.70
2015,08,29,00,07,4.30
2015,08,29,00,08,4.10
2015,08,29,00,09,5.80
2015,08,29,00,10,4.70
2015,08,29,00,11,3.30
2015,08,29,00,12,4.80
2015,08,29,00,13,6.00
2015,08,29,00,14,5.90
2015,08,29,00,15,6.60
2015,08,29,00,16,5.60
2015,08,29,00,17,4.20
2015,08,29,00,18,8.50
2015,08,29,00,19,7.30
2015,08,29,00,20,6.00
2015,08,29,00,21,6.30
2015,08,29,00,22,6.80
2015,08,29,00,23,5.60
2015,08,29,00,24,6.10
2015,08,29,00,25,6.50
2015,08,29,00,26,7.50
2015,08,29,00,27,5.00
2015,08,29,00,28,6.10
2015,08,29,00,29,5.50
2015,08,29,00,30,5.60
2015,08,29,00,31,5.60
2015,08,29,00,32,6.50
2015,08,29,00,33,7.40
2015,08,29,00,34,6.10
2015,08,29,00,35,6.20
2015,08,29,00,36,6.00
2015,08,29,00,37,4.50
2015,08,29,00,38,5.60
2015,08,29,00,39,3.40
2015,08,29,00,40,4.80
2015,08,29,00,41,3.10
2015,08,29,00,42,4.20
2015,08,29,00,43,4.00
2015,08,29,00,44,4.60
2015,08,29,00,45,4.10
2015,08,29,00,46,5.10
2015,08,29,00,47,5.40
2015,08,29,00,48,2.80
2015,08,29,00,49,4.10
2015,08,29,00,50,2.80
2015,08,29,00,51,4.70
2015,08,29,00,52,4.90
2015,08,29,00,53,4.10
2015,08,29,00,54,0.60
2015,08,29,00,55,0.60
2015,08,29,00,56,1.80
2015,08,29,00,57,3.10
2015,08,29,00,58,3.70
2015,08,29,00,59,5.70
2015,08,29,01,00,4.40
2015,08,29,01,01,2.70
2015,08,29,01,02,3.00
2015,08,29,01,03,4.70
2015,08,29,01,04,4.00
2015,08,29,01,05,4.80
2015,08,29,01,06,6.20
2015,08,29,01,07,4.70
2015,08,29,01,08,4.80
2015,08,29,01,09,5.70
2015,08,29,01,10,4.30
2015,08,29,01,11,4.60
2015,08,29,01,12,4.60
2015,08,29,01,13,4.00
2015,08,29,01,14,6.40
2015,08,29,01,15,3.90
2015,08,29,01,16,8.60
2015,08,29,01,17,6.00
2015,08,29,01,18,5.90
2015,08,29,01,19,7.10
2015,08,29,01,20,6.40
2015,08,29,01,21,7.20
2015,08,29,01,22,6.70
2015,08,29,01,23,4.90
2015,08,29,01,24,7.20
2015,08,29,01,25,3.90
2015,08,29,01,26,6.00
2015,08,29,01,27,6.40
2015,08,29,01,28,5.30
2015,08,29,01,29,7.00
2015,08,29,01,30,4.80
2015,08,29,01,31,4.40
2015,08,29,01,32,6.10
2015,08,29,01,33,4.80
2015,08,29,01,34,3.30
2015,08,29,01,35,2.70
2015,08,29,01,36,1.70
2015,08,29,01,37,3.00
2015,08,29,01,38,2.70
2015,08,29,01,39,3.00
2015,08,29,01,40,3.60
2015,08,29,01,41,6.00
2015,08,29,01,42,7.70
2015,08,29,01,43,3.90
2015,08,29,01,44,5.70
2015,08,29,01,45,5.20
2015,08,29,01,46,3.10
2015,08,29,01,47,2.50
2015,08,29,01,48,2.60
2015,08,29,01,49,2.60
2015,08,29,01,50,2.70
2015,08,29,01,51,2.10
2015,08,29,01,52,5.00
2015,08,29,01,53,2.90
2015,08,29,01,54,1.30
2015,08,29,01,55,3.20
2015,08,29,01,56,2.30
2015,08,29,01,57,2.20
2015,08,29,01,58,3.90
2015,08,29,01,59,5.80
2015,08,29,02,00,5.10
2015,08,29,02,01,5.90
2015,08,29,02,02,5.80
2015,08,29,02,03,4.10
2015,08,29,02,04,5.80
2015,08,29,02,05,5.30
2015,08,29,02,06,6.40
2015,08,29,02,07,5.60
2015,08,29,02,08,4.80
2015,08,29,02,09,4.40
2015,08,29,02,10,4.40
2015,08,29,02,11,6.10
2015,08,29,02,12,6.10
2015,08,29,02,13,5.70
2015,08,29,02,14,3.70
2015,08,29,02,15,4.30
2015,08,29,02,16,3.20
2015,08,29,02,17,4.00
2015,08,29,02,18,4.60
2015,08,29,02,19,6.10
2015,08,29,02,20,6.30
2015,08,29,02,21,5.80
2015,08,29,02,22,5.90
2015,08,29,02,23,6.70
2015,08,29,02,24,4.90
2015,08,29,02,25,4.50
2015,08,29,02,26,7.00
2015,08,29,02,27,7.00
2015,08,29,02,28,6.30
2015,08,29,02,29,9.30
2015,08,29,02,30,3.80
2015,08,29,02,31,5.60
2015,08,29,02,32,9.70
2015,08,29,02,33,7.90
2015,08,29,02,34,9.00
2015,08,29,02,35,5.60
2015,08,29,02,36,7.90
2015,08,29,02,37,8.90
2015,08,29,02,38,8.70
2015,08,29,02,39,8.90
2015,08,29,02,40,7.60
2015,08,29,02,41,9.40
2015,08,29,02,42,11.30
2015,08,29,02,43,9.50
2015,08,29,02,44,6.10
2015,08,29,02,45,4.70
2015,08,29,02,46,4.30
2015,08,29,02,47,8.00
2015,08,29,02,48,8.10
2015,08,29,02,49,6.20
2015,08,29,02,50,8.20
2015,08,29,02,51,8.80
2015,08,29,02,52,10.30
2015,08,29,02,53,7.60
2015,08,29,02,54,7.40
2015,08,29,02,55,11.30
2015,08,29,02,56,6.60
2015,08,29,02,57,7.50
2015,08,29,02,58,6.00
2015,08,29,02,59,7.80
2015,08,29,03,00,7.50
2015,08,29,03,01,6.90
2015,08,29,03,02,6.60
2015,08,29,03,03,4.30
2015,08,29,03,04,5.40
2015,08,29,03,05,5.50
2015,08,29,03,06,5.00
2015,08,29,03,07,6.70
2015,08,29,03,08,5.10
2015,08,29,03,09,6.00
2015,08,29,03,10,6.90
2015,08,29,03,11,8.40
2015,08,29,03,12,7.20
2015,08,29,03,13,6.80
2015,08,29,03,14,6.10
2015,08,29,03,15,6.00
2015,08,29,03,16,4.90
2015,08,29,03,17,5.80
2015,08,29,03,18,6.50
2015,08,29,03,19,6.00
2015,08,29,03,20,6.60
2015,08,29,03,21,7.50
2015,08,29,03,22,12.00
2015,08,29,03,23,9.90
2015,08,29,03,24,6.80
2015,08,29,03,25,8.20
2015,08,29,03,26,6.50
2015,08,29,03,27,6.50
2015,08,29,03,28,8.60
2015,08,29,03,29,8.70
2015,08,29,03,30,7.30
2015,08,29,03,31,6.70
2015,08,29,03,32,8.60
2015,08,29,03,33,7.80
2015,08,29,03,34,7.20
2015,08,29,03,35,4.90
2015,08,29,03,36,5.10
2015,08,29,03,37,5.80
2015,08,29,03,38,8.40
2015,08,29,03,39,6.20
2015,08,29,03,40,6.20
2015,08,29,03,41,5.40
2015,08,29,03,42,6.10
2015,08,29,03,43,5.30
2015,08,29,03,44,5.70
2015,08,29,03,45,5.40
2015,08,29,03,46,2.60
2015,08,29,03,47,3.60
2015,08,29,03,48,6.70
2015,08,29,03,49,5.50
2015,08,29,03,50,3.50
2015,08,29,03,51,6.70
2015,08,29,03,52,8.90
2015,08,29,03,53,8.50
2015,08,29,03,54,8.20
2015,08,29,03,55,7.90
2015,08,29,03,56,5.20
2015,08,29,03,57,8.90
2015,08,29,03,58,8.60
2015,08,29,03,59,6.00
2015,08,29,04,00,6.70
2015,08,29,04,01,4.80
2015,08,29,04,02,6.00
2015,08,29,04,03,5.70
2015,08,29,04,04,6.90
2015,08,29,04,05,7.80
2015,08,29,04,06,6.40
2015,08,29,04,07,9.40
2015,08,29,04,08,8.90
2015,08,29,04,09,6.40
2015,08,29,04,10,5.60
2015,08,29,04,11,7.60
2015,08,29,04,12,8.80
2015,08,29,04,13,6.50
2015,08,29,04,14,9.00
2015,08,29,04,15,8.90
2015,08,29,04,16,7.10
2015,08,29,04,17,9.00
2015,08,29,04,18,7.90
2015,08,29,04,19,5.10
2015,08,29,04,20,3.00
2015,08,29,04,21,3.20
2015,08,29,04,22,3.70
2015,08,29,04,23,3.80
2015,08,29,04,24,3.50
2015,08,29,04,25,7.90
2015,08,29,04,26,7.30
2015,08,29,04,27,4.30
2015,08,29,04,28,6.20
2015,08,29,04,29,6.40
2015,08,29,04,30,5.20
2015,08,29,04,31,5.10
2015,08,29,04,32,5.60
2015,08,29,04,33,4.80
2015,08,29,04,34,6.20
2015,08,29,04,35,10.10
2015,08,29,04,36,9.70
2015,08,29,04,37,6.40
2015,08,29,04,38,5.30
2015,08,29,04,39,2.40
2015,08,29,04,40,6.70
2015,08,29,04,41,3.90
2015,08,29,04,42,9.10
2015,08,29,04,43,6.50
2015,08,29,04,44,6.30
2015,08,29,04,45,4.60
2015,08,29,04,46,6.80
2015,08,29,04,47,7.90
2015,08,29,04,48,5.90
2015,08,29,04,49,10.00
2015,08,29,04,50,9.20
2015,08,29,04,51,6.80
2015,08,29,04,52,4.10
2015,08,29,04,53,5.50
2015,08,29,04,54,7.00
2015,08,29,04,55,3.10
2015,08,29,04,56,5.40
2015,08,29,04,57,4.70
2015,08,29,04,58,6.80
2015,08,29,04,59,9.40
2015,08,29,05,00,7.10
2015,08,29,05,01,8.00
2015,08,29,05,02,7.10
2015,08,29,05,03,2.70
2015,08,29,05,04,4.30
2015,08,29,05,05,6.40
2015,08,29,05,06,8.90
2015,08,29,05,07,4.20
2015,08,29,05,08,6.10
2015,08,29,05,09,7.30
2015,08,29,05,10,9.20
2015,08,29,05,11,8.10
2015,08,29,05,12,4.60
2015,08,29,05,13,3.80
2015,08,29,05,14,3.10
2015,08,29,05,15,6.80
2015,08,29,05,16,8.40
2015,08,29,05,17,4.60
2015,08,29,05,18,6.40
2015,08,29,05,19,9.90
2015,08,29,05,20,5.10
2015,08,29,05,21,2.30
2015,08,29,05,22,0.50
2015,08,29,05,23,5.80
2015,08,29,05,24,5.40
2015,08,29,05,25,3.50
2015,08,29,05,26,1.90
2015,08,29,05,27,2.00
2015,08,29,05,28,5.50
2015,08,29,05,29,7.20
2015,08,29,05,30,8.50
2015,08,29,05,31,5.70
2015,08,29,05,32,4.70
2015,08,29,05,33,6.00
2015,08,29,05,34,7.10
2015,08,29,05,35,11.90
2015,08,29,05,36,13.80
2015,08,29,05,37,17.00
2015,08,29,05,38,15.10
2015,08,29,05,39,19.10
2015,08,29,05,40,13.00
2015,08,29,05,41,12.90
2015,08,29,05,42,11.70
2015,08,29,05,43,13.00
2015,08,29,05,44,8.60
2015,08,29,05,45,13.40
2015,08,29,05,46,7.50
2015,08,29,05,47,14.30
2015,08,29,05,48,13.60
2015,08,29,05,49,11.70
2015,08,29,05,50,11.50
2015,08,29,05,51,6.90
2015,08,29,05,52,7.60
2015,08,29,05,53,7.30
2015,08,29,05,54,7.50
2015,08,29,05,55,7.80
2015,08,29,05,56,4.70
2015,08,29,05,57,3.00
2015,08,29,05,58,5.40
2015,08,29,05,59,4.70
2015,08,29,06,00,2.90
2015,08,29,06,01,1.90
2015,08,29,06,02,0.80
2015,08,29,06,03,0.20
2015,08,29,06,04,2.40
2015,08,29,06,05,0.90
2015,08,29,06,06,2.90
2015,08,29,06,07,2.80
2015,08,29,06,08,2.80
2015,08,29,06,09,3.50
2015,08,29,06,10,2.90
2015,08,29,06,11,2.30
2015,08,29,06,12,3.80
2015,08,29,06,13,6.70
2015,08,29,06,14,6.50
2015,08,29,06,15,7.00
2015,08,29,06,16,8.20
2015,08,29,06,17,7.00
2015,08,29,06,18,5.60
2015,08,29,06,19,7.00
2015,08,29,06,20,5.00
2015,08,29,06,21,3.10
2015,08,29,06,22,2.50
2015,08,29,06,23,3.80
2015,08,29,06,24,6.50
2015,08,29,06,25,6.00
2015,08,29,06,26,6.20
2015,08,29,06,27,8.10
2015,08,29,06,28,7.00
2015,08,29,06,29,5.80
2015,08,29,06,30,3.00
2015,08,29,06,31,4.90
2015,08,29,06,32,4.70
2015,08,29,06,33,5.40
2015,08,29,06,34,6.10
2015,08,29,06,35,6.50
2015,08,29,06,36,6.70
2015,08,29,06,37,4.30
2015,08,29,06,38,5.50
2015,08,29,06,39,4.00
2015,08,29,06,40,8.10
2015,08,29,06,41,8.70
2015,08,29,06,42,6.40
2015,08,29,06,43,6.90
2015,08,29,06,44,6.90
2015,08,29,06,45,6.20
2015,08,29,06,46,1.60
2015,08,29,06,47,2.70
2015,08,29,06,48,1.50
2015,08,29,06,49,4.70
2015,08,29,06,50,5.90
2015,08,29,06,51,2.80
2015,08,29,06,52,6.60
2015,08,29,06,53,7.30
2015,08,29,06,54,5.30
2015,08,29,06,55,3.40
2015,08,29,06,56,1.80
2015,08,29,06,57,5.10
2015,08,29,06,58,5.80
2015,08,29,06,59,3.70
2015,08,29,07,00,2.40
2015,08,29,07,01,3.00
2015,08,29,07,02,5.20
2015,08,29,07,03,8.90
2015,08,29,07,04,6.40
2015,08,29,07,05,6.00
2015,08,29,07,06,4.70
2015,08,29,07,07,7.00
2015,08,29,07,08,4.60
2015,08,29,07,09,4.70
2015,08,29,07,10,8.30
2015,08,29,07,11,6.60
2015,08,29,07,12,6.80
2015,08,29,07,13,3.80
2015,08,29,07,14,5.50
2015,08,29,07,15,6.50
2015,08,29,07,16,8.30
2015,08,29,07,17,6.40
2015,08,29,07,18,3.20
2015,08,29,07,19,5.80
2015,08,29,07,20,5.10
2015,08,29,07,21,6.60
2015,08,29,07,22,6.20
2015,08,29,07,23,7.50
2015,08,29,07,24,4.20
2015,08,29,07,25,7.50
2015,08,29,07,26,5.10
2015,08,29,07,27,6.90
2015,08,29,07,28,9.00
2015,08,29,07,29,8.50
2015,08,29,07,30,9.20
2015,08,29,07,31,5.80
2015,08,29,07,32,8.90
2015,08,29,07,33,7.40
2015,08,29,07,34,7.20
2015,08,29,07,35,6.60
2015,08,29,07,36,3.90
2015,08,29,07,37,2.30
2015,08,29,07,38,5.30
2015,08,29,07,39,5.30
2015,08,29,07,40,5.30
2015,08,29,07,41,7.30
2015,08,29,07,42,6.80
2015,08,29,07,43,6.00
2015,08,29,07,44,3.30
2015,08,29,07,45,4.00
2015,08,29,07,46,4.90
2015,08,29,07,47,3.60
2015,08,29,07,48,2.30
2015,08,29,07,49,4.40
2015,08,29,07,50,3.30
2015,08,29,07,51,4.30
2015,08,29,07,52,7.70
2015,08,29,07,53,9.00
2015,08,29,07,54,1.90
2015,08,29,07,55,0.50
2015,08,29,07,56,1.00
2015,08,29,07,57,3.40
2015,08,29,07,58,4.10
2015,08,29,07,59,2.80
2015,08,29,08,00,5.00
2015,08,29,08,01,2.50
2015,08,29,08,02,5.20
2015,08,29,08,03,6.80
2015,08,29,08,04,4.20
2015,08,29,08,05,2.10
2015,08,29,08,06,1.10
2015,08,29,08,07,4.30
2015,08,29,08,08,3.70
2015,08,29,08,09,4.70
2015,08,29,08,10,1.20
2015,08,29,08,11,1.00
2015,08,29,08,12,0.90
2015,08,29,08,13,4.40
2015,08,29,08,14,4.70
2015,08,29,08,15,4.50
2015,08,29,08,16,2.60
2015,08,29,08,17,0.70
2015,08,29,08,18,1.50
2015,08,29,08,19,1.50
2015,08,29,08,20,1.80
2015,08,29,08,21,2.40
2015,08,29,08,22,0.10
2015,08,29,08,23,3.50
2015,08,29,08,24,4.90
2015,08,29,08,25,3.90
2015,08,29,08,26,2.90
2015,08,29,08,27,4.50
2015,08,29,08,28,4.90
2015,08,29,08,29,0.60
2015,08,29,08,30,7.00
2015,08,29,08,31,4.00
2015,08,29,08,32,2.10
2015,08,29,08,33,4.60
2015,08,29,08,34,4.80
2015,08,29,08,35,5.60
2015,08,29,08,36,4.30
2015,08,29,08,37,3.10
2015,08,29,08,38,6.10
2015,08,29,08,39,5.30
2015,08,29,08,40,2.60
2015,08,29,08,41,7.40
2015,08,29,08,42,4.30
2015,08,29,08,43,6.20
2015,08,29,08,44,2.80
2015,08,29,08,45,4.90
2015,08,29,08,46,1.00
2015,08,29,08,47,1.00
2015,08,29,08,48,1.60
2015,08,29,08,49,5.60
2015,08,29,08,50,6.40
2015,08,29,08,51,2.30
2015,08,29,08,52,3.80
2015,08,29,08,53,3.80
2015,08,29,08,54,5.50
2015,08,29,08,55,4.70
2015,08,29,08,56,2.20
2015,08,29,08,57,3.50
2015,08,29,08,58,8.90
2015,08,29,08,59,4.40
2015,08,29,09,00,4.30
2015,08,29,09,01,4.50
2015,08,29,09,02,5.50
2015,08,29,09,03,3.50
2015,08,29,09,04,4.70
2015,08,29,09,05,6.30
2015,08,29,09,06,5.30
2015,08,29,09,07,3.40
2015,08,29,09,08,7.30
2015,08,29,09,09,7.50
2015,08,29,09,10,7.50
2015,08,29,09,11,3.30
2015,08,29,09,12,3.30
2015,08,29,09,13,6.90
2015,08,29,09,14,5.20
2015,08,29,09,15,4.90
2015,08,29,09,16,6.50
2015,08,29,09,17,9.60
2015,08,29,09,18,8.20
2015,08,29,09,19,5.60
2015,08,29,09,20,6.10
2015,08,29,09,21,6.80
2015,08,29,09,22,1.80
2015,08,29,09,23,1.80
2015,08,29,09,24,4.40
2015,08,29,09,25,6.70
2015,08,29,09,26,6.40
2015,08,29,09,27,6.50
2015,08,29,09,28,4.70
2015,08,29,09,29,2.60
2015,08,29,09,30,6.40
2015,08,29,09,31,5.80
2015,08,29,09,32,8.00
2015,08,29,09,33,10.20
2015,08,29,09,34,6.00
2015,08,29,09,35,5.90
2015,08,29,09,36,5.20
2015,08,29,09,37,6.70
2015,08,29,09,38,8.90
2015,08,29,09,39,8.50
2015,08,29,09,40,3.80
2015,08,29,09,41,4.80
2015,08,29,09,42,9.30
2015,08,29,09,43,8.50
2015,08,29,09,44,9.80
2015,08,29,09,45,7.90
2015,08,29,09,46,8.00
2015,08,29,09,47,10.70
2015,08,29,09,48,8.60
2015,08,29,09,49,6.00
2015,08,29,09,50,3.90
2015,08,29,09,51,8.30
2015,08,29,09,52,8.50
2015,08,29,09,53,10.90
2015,08,29,09,54,13.90
2015,08,29,09,55,11.70
2015,08,29,09,56,7.20
2015,08,29,09,57,4.10
2015,08,29,09,58,7.10
2015,08,29,09,59,7.60
2015,08,29,10,00,13.80
2015,08,29,10,01,7.70
2015,08,29,10,02,3.80
2015,08,29,10,03,4.40
2015,08,29,10,04,5.90
2015,08,29,10,05,12.90
2015,08,29,10,06,13.40
2015,08,29,10,07,10.00
2015,08,29,10,08,8.00
2015,08,29,10,09,4.70
2015,08,29,10,10,5.50
2015,08,29,10,11,3.10
2015,08,29,10,12,4.60
2015,08,29,10,13,1.40
2015,08,29,10,14,2.40
2015,08,29,10,15,1.80
2015,08,29,10,16,0.30
2015,08,29,10,17,0.00
2015,08,29,10,18,3.30
2015,08,29,10,19,3.00
2015,08,29,10,20,4.50
2015,08,29,10,21,5.80
2015,08,29,10,22,2.70
2015,08,29,10,23,0.90
2015,08,29,10,24,0.50
2015,08,29,10,25,3.20
2015,08,29,10,26,2.50
2015,08,29,10,27,5.20
2015,08,29,10,28,2.90
2015,08,29,10,29,1.00
2015,08,29,10,30,3.90
2015,08,29,10,31,3.50
2015,08,29,10,32,5.20
2015,08,29,10,33,7.20
2015,08,29,10,34,6.10
2015,08,29,10,35,3.10
2015,08,29,10,36,2.00
2015,08,29,10,37,1.90
2015,08,29,10,38,1.70
2015,08,29,10,39,3.80
2015,08,29,10,40,8.10
2015,08,29,10,41,6.40
2015,08,29,10,42,4.20
2015,08,29,10,43,5.20
2015,08,29,10,44,3.60
2015,08,29,10,45,4.80
2015,08,29,10,46,5.60
2015,08,29,10,47,5.90
2015,08,29,10,48,3.60
2015,08,29,10,49,5.40
2015,08,29,10,50,5.80
2015,08,29,10,51,5.60
2015,08,29,10,52,6.80
2015,08,29,10,53,5.20
2015,08,29,10,54,11.30
2015,08,29,10,55,3.60
2015,08,29,10,56,3.90
2015,08,29,10,57,3.60
2015,08,29,10,58,12.60
2015,08,29,10,59,8.00
2015,08,29,11,00,5.70
2015,08,29,11,01,7.90
2015,08,29,11,02,3.60
2015,08,29,11,03,10.40
2015,08,29,11,04,13.80
2015,08,29,11,05,10.20
2015,08,29,11,06,7.20
2015,08,29,11,07,15.10
2015,08,29,11,08,10.00
2015,08,29,11,09,15.30
2015,08,29,11,10,12.50
2015,08,29,11,11,10.20
2015,08,29,11,12,9.80
2015,08,29,11,13,13.10
2015,08,29,11,14,11.90
2015,08,29,11,15,12.90
2015,08,29,11,16,7.20
2015,08,29,11,17,10.10
2015,08,29,11,18,8.10
2015,08,29,11,19,12.50
2015,08,29,11,20,9.80
2015,08,29,11,21,15.00
2015,08,29,11,22,9.50
2015,08,29,11,23,13.80
2015,08,29,11,24,6.40
2015,08,29,11,25,8.90
2015,08,29,11,26,8.80
2015,08,29,11,27,9.40
2015,08,29,11,28,4.40
2015,08,29,11,29,9.60
2015,08,29,11,30,6.50
2015,08,29,11,31,9.80
2015,08,29,11,32,14.60
2015,08,29,11,33,3.50
2015,08,29,11,34,8.50
2015,08,29,11,35,4.30
2015,08,29,11,36,5.20
2015,08,29,11,37,8.90
2015,08,29,11,38,7.60
2015,08,29,11,39,5.50
2015,08,29,11,40,6.60
2015,08,29,11,41,5.20
2015,08,29,11,42,10.20
2015,08,29,11,43,8.50
2015,08,29,11,44,5.40
2015,08,29,11,45,12.60
2015,08,29,11,46,8.50
2015,08,29,11,47,10.00
2015,08,29,11,48,13.80
2015,08,29,11,49,6.60
2015,08,29,11,50,3.90
2015,08,29,11,51,5.10
2015,08,29,11,52,2.60
2015,08,29,11,53,6.90
2015,08,29,11,54,7.20
2015,08,29,11,55,6.50
2015,08,29,11,56,5.70
2015,08,29,11,57,3.00
2015,08,29,11,58,1.10
2015,08,29,11,59,2.20
2015,08,29,12,00,3.40
2015,08,29,12,01,1.60
2015,08,29,12,02,7.10
2015,08,29,12,03,6.80
2015,08,29,12,04,4.90
2015,08,29,12,05,14.20
2015,08,29,12,06,10.80
2015,08,29,12,07,6.60
2015,08,29,12,08,2.10
2015,08,29,12,09,5.20
2015,08,29,12,10,12.70
2015,08,29,12,11,7.90
2015,08,29,12,12,8.00
2015,08,29,12,13,18.70
2015,08,29,12,14,14.70
2015,08,29,12,15,10.10
2015,08,29,12,16,14.00
2015,08,29,12,17,13.70
2015,08,29,12,18,15.40
2015,08,29,12,19,18.80
2015,08,29,12,20,16.20
2015,08,29,12,21,18.10
2015,08,29,12,22,15.40
2015,08,29,12,23,11.80
2015,08,29,12,24,18.30
2015,08,29,12,25,17.20
2015,08,29,12,26,15.20
2015,08,29,12,27,13.90
2015,08,29,12,28,15.50
2015,08,29,12,29,16.90
2015,08,29,12,30,18.00
2015,08,29,12,31,12.70
2015,08,29,12,32,14.10
2015,08,29,12,33,13.90
2015,08,29,12,34,7.70
2015,08,29,12,35,7.70
2015,08,29,12,36,7.20
2015,08,29,12,37,15.80
2015,08,29,12,38,16.60
2015,08,29,12,39,11.50
2015,08,29,12,40,20.30
2015,08,29,12,41,23.90
2015,08,29,12,42,16.80
2015,08,29,12,43,18.70
2015,08,29,12,44,18.90
2015,08,29,12,45,17.50
2015,08,29,12,46,16.60
2015,08,29,12,47,17.30
2015,08,29,12,48,9.20
2015,08,29,12,49,6.60
2015,08,29,12,50,7.90
2015,08,29,12,51,8.10
2015,08,29,12,52,3.80
2015,08,29,12,53,7.40
2015,08,29,12,54,6.20
2015,08,29,12,55,4.30
2015,08,29,12,56,5.80
2015,08,29,12,57,7.90
2015,08,29,12,58,8.90
2015,08,29,12,59,8.00
2015,08,29,13,00,3.70
2015,08,29,13,01,5.60
2015,08,29,13,02,14.70
2015,08,29,13,03,7.10
2015,08,29,13,04,11.20
2015,08,29,13,05,7.90
2015,08,29,13,06,5.00
2015,08,29,13,07,6.00
2015,08,29,13,08,6.10
2015,08,29,13,09,3.60
2015,08,29,13,10,7.10
2015,08,29,13,11,9.20
2015,08,29,13,12,6.00
2015,08,29,13,13,3.40
2015,08,29,13,14,3.20
2015,08,29,13,15,6.70
2015,08,29,13,16,4.70
2015,08,29,13,17,2.90
2015,08,29,13,18,8.90
2015,08,29,13,19,17.10
2015,08,29,13,20,10.00
2015,08,29,13,21,5.70
2015,08,29,13,22,4.30
2015,08,29,13,23,4.70
2015,08,29,13,24,6.30
2015,08,29,13,25,8.50
2015,08,29,13,26,9.40
2015,08,29,13,27,9.20
2015,08,29,13,28,8.20
2015,08,29,13,29,4.90
2015,08,29,13,30,9.70
2015,08,29,13,31,8.00
2015,08,29,13,32,9.60
2015,08,29,13,33,9.40
2015,08,29,13,34,15.50
2015,08,29,13,35,15.40
2015,08,29,13,36,8.90
2015,08,29,13,37,6.30
2015,08,29,13,38,14.40
2015,08,29,13,39,20.80
2015,08,29,13,40,17.10
2015,08,29,13,41,12.60
2015,08,29,13,42,19.50
2015,08,29,13,43,18.30
2015,08,29,13,44,25.60
2015,08,29,13,45,22.40
2015,08,29,13,46,15.00
2015,08,29,13,47,10.60
2015,08,29,13,48,23.80
2015,08,29,13,49,17.00
2015,08,29,13,50,14.00
2015,08,29,13,51,21.10
2015,08,29,13,52,20.60
2015,08,29,13,53,28.60
2015,08,29,13,54,21.40
2015,08,29,13,55,21.80
2015,08,29,13,56,17.40
2015,08,29,13,57,25.80
2015,08,29,13,58,36.50
2015,08,29,13,59,31.30
2015,08,29,14,00,33.70
2015,08,29,14,01,23.00
2015,08,29,14,02,31.80
2015,08,29,14,03,30.70
2015,08,29,14,04,29.00
2015,08,29,14,05,35.20
2015,08,29,14,06,25.20
2015,08,29,14,07,30.00
2015,08,29,14,08,26.20
2015,08,29,14,09,33.80
2015,08,29,14,10,29.40
2015,08,29,14,11,28.20
2015,08,29,14,12,37.80
2015,08,29,14,13,30.50
2015,08,29,14,14,28.50
2015,08,29,14,15,34.90
2015,08,29,14,16,29.70
2015,08,29,14,17,21.90
2015,08,29,14,18,36.90
2015,08,29,14,19,31.60
2015,08,29,14,20,36.80
2015,08,29,14,21,33.10
2015,08,29,14,22,29.70
2015,08,29,14,23,21.00
2015,08,29,14,24,31.90
2015,08,29,14,25,20.20
2015,08,29,14,26,26.40
2015,08,29,14,27,28.90
2015,08,29,14,28,27.70
2015,08,29,14,29,23.30
2015,08,29,14,30,22.90
2015,08,29,14,31,24.80
2015,08,29,14,32,22.30
2015,08,29,14,33,22.10
2015,08,29,14,34,27.50
2015,08,29,14,35,24.30
2015,08,29,14,36,24.20
2015,08,29,14,37,32.20
2015,08,29,14,38,33.70
2015,08,29,14,39,24.20
2015,08,29,14,40,18.80
2015,08,29,14,41,26.30
2015,08,29,14,42,28.40
2015,08,29,14,43,25.10
2015,08,29,14,44,17.20
2015,08,29,14,45,27.40
2015,08,29,14,46,29.10
2015,08,29,14,47,23.30
2015,08,29,14,48,17.50
2015,08,29,14,49,28.60
2015,08,29,14,50,27.20
2015,08,29,14,51,23.40
2015,08,29,14,52,25.50
2015,08,29,14,53,24.60
2015,08,29,14,54,27.90
2015,08,29,14,55,25.80
2015,08,29,14,56,21.30
2015,08,29,14,57,18.90
2015,08,29,14,58,21.90
2015,08,29,14,59,20.70
2015,08,29,15,00,26.90
2015,08,29,15,01,23.70
2015,08,29,15,02,19.90
2015,08,29,15,03,19.90
2015,08,29,15,04,18.30
2015,08,29,15,05,25.00
2015,08,29,15,06,24.90
2015,08,29,15,07,26.30
2015,08,29,15,08,29.20
2015,08,29,15,09,23.20
2015,08,29,15,10,24.80
2015,08,29,15,11,20.10
2015,08,29,15,12,16.10
2015,08,29,15,13,13.10
2015,08,29,15,14,15.70
2015,08,29,15,15,24.20
2015,08,29,15,16,22.50
2015,08,29,15,17,21.80
2015,08,29,15,18,19.90
2015,08,29,15,19,15.20
2015,08,29,15,20,15.40
2015,08,29,15,21,13.00
2015,08,29,15,22,13.40
2015,08,29,15,23,22.10
2015,08,29,15,24,22.70
2015,08,29,15,25,16.50
2015,08,29,15,26,14.90
2015,08,29,15,27,16.90
2015,08,29,15,28,16.50
2015,08,29,15,29,12.70
2015,08,29,15,30,25.40
2015,08,29,15,31,24.70
2015,08,29,15,32,14.10
2015,08,29,15,33,13.00
2015,08,29,15,34,18.30
2015,08,29,15,35,16.30
2015,08,29,15,36,23.90
2015,08,29,15,37,20.80
2015,08,29,15,38,23.50
2015,08,29,15,39,20.50
2015,08,29,15,40,20.30
2015,08,29,15,41,16.60
2015,08,29,15,42,12.90
2015,08,29,15,43,18.30
2015,08,29,15,44,17.00
2015,08,29,15,45,21.90
2015,08,29,15,46,17.70
2015,08,29,15,47,21.30
2015,08,29,15,48,23.80
2015,08,29,15,49,18.50
2015,08,29,15,50,18.00
2015,08,29,15,51,15.30
2015,08,29,15,52,17.20
2015,08,29,15,53,11.30
2015,08,29,15,54,15.70
2015,08,29,15,55,12.20
2015,08,29,15,56,14.40
2015,08,29,15,57,14.50
2015,08,29,15,58,10.20
2015,08,29,15,59,9.40
2015,08,29,16,00,15.60
2015,08,29,16,01,17.90
2015,08,29,16,02,18.60
2015,08,29,16,03,18.80
2015,08,29,16,04,17.10
2015,08,29,16,05,15.70
2015,08,29,16,06,19.60
2015,08,29,16,07,17.70
2015,08,29,16,08,15.40
2015,08,29,16,09,16.50
2015,08,29,16,10,11.60
2015,08,29,16,11,20.80
2015,08,29,16,12,17.10
2015,08,29,16,13,16.90
2015,08,29,16,14,13.20
2015,08,29,16,15,9.90
2015,08,29,16,16,14.70
2015,08,29,16,17,8.70
2015,08,29,16,18,10.80
2015,08,29,16,19,10.50
2015,08,29,16,20,8.00
2015,08,29,16,21,6.60
2015,08,29,16,22,6.80
2015,08,29,16,23,7.00
2015,08,29,16,24,10.40
2015,08,29,16,25,13.00
2015,08,29,16,26,8.60
2015,08,29,16,27,9.90
2015,08,29,16,28,9.90
2015,08,29,16,29,14.50
2015,08,29,16,30,11.00
2015,08,29,16,31,9.10
2015,08,29,16,32,8.90
2015,08,29,16,33,8.40
2015,08,29,16,34,6.40
2015,08,29,16,35,6.80
2015,08,29,16,36,6.20
2015,08,29,16,37,9.70
2015,08,29,16,38,11.10
2015,08,29,16,39,13.70
2015,08,29,16,40,6.90
2015,08,29,16,41,9.70
2015,08,29,16,42,6.90
2015,08,29,16,43,7.90
2015,08,29,16,44,7.50
2015,08,29,16,45,7.20
2015,08,29,16,46,5.20
2015,08,29,16,47,5.20
2015,08,29,16,48,7.60
2015,08,29,16,49,7.50
2015,08,29,16,50,5.60
2015,08,29,16,51,6.90
2015,08,29,16,52,5.10
2015,08,29,16,53,4.90
2015,08,29,16,54,4.70
2015,08,29,16,55,3.80
2015,08,29,16,56,2.40
2015,08,29,16,57,5.10
2015,08,29,16,58,5.60
2015,08,29,16,59,3.90
2015,08,29,17,00,5.40
2015,08,29,17,01,3.80
2015,08,29,17,02,4.00
2015,08,29,17,03,2.90
2015,08,29,17,04,2.30
2015,08,29,17,05,0.60
2015,08,29,17,06,0.00
2015,08,29,17,07,0.70
2015,08,29,17,08,3.60
2015,08,29,17,09,3.70
2015,08,29,17,10,3.40
2015,08,29,17,11,1.40
2015,08,29,17,12,0.90
2015,08,29,17,13,0.80
2015,08,29,17,14,1.20
2015,08,29,17,15,1.40
2015,08,29,17,16,0.80
2015,08,29,17,17,0.00
2015,08,29,17,18,0.00
2015,08,29,17,19,0.00
2015,08,29,17,20,0.70
2015,08,29,17,21,0.40
2015,08,29,17,22,0.30
2015,08,29,17,23,2.60
2015,08,29,17,24,0.40
2015,08,29,17,25,0.00
2015,08,29,17,26,1.50
2015,08,29,17,27,2.00
2015,08,29,17,28,1.10
2015,08,29,17,29,0.00
2015,08,29,17,30,0.00
2015,08,29,17,31,0.20
2015,08,29,17,32,3.60
2015,08,29,17,33,3.60
2015,08,29,17,34,3.70
2015,08,29,17,35,3.00
2015,08,29,17,36,4.70
2015,08,29,17,37,6.30
2015,08,29,17,38,7.40
2015,08,29,17,39,7.90
2015,08,29,17,40,9.70
2015,08,29,17,41,7.80
2015,08,29,17,42,9.50
2015,08,29,17,43,8.70
2015,08,29,17,44,8.40
2015,08,29,17,45,9.40
2015,08,29,17,46,7.60
2015,08,29,17,47,11.30
2015,08,29,17,48,12.40
2015,08,29,17,49,9.20
2015,08,29,17,50,12.20
2015,08,29,17,51,9.20
2015,08,29,17,52,17.20
2015,08,29,17,53,12.20
2015,08,29,17,54,12.10